Greenville, AL

10:51 PM CDT on May 29, 2017 (GMT -0500)
Greenville Municipal

Weather History for KPRN - October, 2013

Change the Weather History Date:

Friday, October 4, 2013

  Actual Average Record
Temperature  
Mean Temperature 76 °F -  
Max Temperature 89 °F 83 °F 96 °F (1986)
Min Temperature 64 °F 57 °F 40 °F (1974)
Cooling Degree Days 12    
Growing Degree Days 26 (Base 50)    
Moisture  
Dew Point 66 °F    
Average Humidity 75    
Maximum Humidity 93    
Minimum Humidity 45    
Precipitation  
Precipitation 0.00 in - - ()
Sea Level Pressure  
Sea Level Pressure 30.06 in    
Wind  
Wind Speed 2 mph (SE)    
Max Wind Speed 12 mph    
Max Gust Speed -    
Visibility 10 miles    
Events Hail    
Averages and records for this station are not official NWS values.
T = Trace of Precipitation, MM = Missing Value Source: NWS Daily Summary

Daily Weather History Graph

Daily Weather History Graph

Search for Another Location

Airport or City:

Trip Planner

Search our weather history database for the weather conditions in past years. The results will help you decide how hot, cold, wet, or windy it might be!

Date:

Astronomy

Oct. 04, 2013 Rise Set
Actual Time 6:42 AM CDT 6:27 PM CDT
Civil Twilight 6:18 AM CDT 6:51 PM CDT
Nautical Twilight 5:49 AM CDT 7:19 PM CDT
Astronomical Twilight 5:21 AM CDT 7:48 PM CDT
Moon 6:16 AM CDT (10/4) 6:11 PM CDT (10/4)
Length of Visible Light 12h 33m
Length of Day
11h 44m
Waning Crescent, 0% of the Moon is Illuminated
Oct 4
Waning Crescent
Oct 4
New
Oct 11
First Quarter
Oct 18
Full
Oct 26
Last Quarter

Hourly Weather History & Observations

Time (CDT) Temp. Heat Index Dew Point Humidity Pressure Visibility Wind Dir Wind Speed Gust Speed Precip Events Conditions
12:56 AM 66.0 °F - 63.0 °F 90% 30.05 in 9.0 mi Calm Calm - N/A   Clear
1:56 AM 66.9 °F - 63.0 °F 87% 30.04 in 10.0 mi Calm Calm - N/A   Clear
2:56 AM 64.9 °F - 63.0 °F 93% 30.04 in 9.0 mi Calm Calm - N/A   Clear
3:56 AM 64.9 °F - 62.1 °F 90% 30.04 in 10.0 mi Calm Calm - N/A   Clear
4:56 AM 64.9 °F - 62.1 °F 90% 30.05 in 9.0 mi Calm Calm - N/A   Clear
5:56 AM 66.0 °F - 64.0 °F 93% 30.06 in 6.0 mi Calm Calm - N/A   Clear
6:56 AM 64.9 °F - 63.0 °F 93% 30.08 in 9.0 mi Calm Calm - N/A   Clear
7:56 AM 71.1 °F - 66.9 °F 87% 30.09 in 8.0 mi East 3.5 mph - N/A   Mostly Cloudy
8:56 AM 77.0 °F - 68.0 °F 74% 30.11 in 10.0 mi ESE 6.9 mph - N/A   Mostly Cloudy
9:56 AM 81.0 °F 83.3 °F 66.9 °F 62% 30.11 in 10.0 mi ESE 11.5 mph - N/A   Partly Cloudy
10:15 AM - - - N/A% - - North - - N/A Hail Hail
10:56 AM 84.0 °F 86.5 °F 66.9 °F 56% 30.10 in 10.0 mi ESE 9.2 mph - N/A   Scattered Clouds
11:56 AM 86.0 °F 89.4 °F 68.0 °F 55% 30.09 in 10.0 mi SSE 9.2 mph - N/A   Clear
12:56 PM 87.1 °F 89.9 °F 66.9 °F 51% 30.07 in 10.0 mi ESE 9.2 mph - N/A   Partly Cloudy
1:56 PM - - - N/A% - 10.0 mi South 6.9 mph - N/A   Clear
2:56 PM 89.1 °F 91.0 °F 64.9 °F 45% 30.03 in 10.0 mi Variable 6.9 mph - N/A   Mostly Cloudy
3:56 PM 87.1 °F 89.2 °F 66.0 °F 49% 30.02 in 10.0 mi South 4.6 mph - N/A   Scattered Clouds
4:56 PM 84.9 °F 88.2 °F 68.0 °F 57% 30.02 in 10.0 mi SSE 4.6 mph - N/A   Overcast
5:56 PM 84.0 °F 87.8 °F 69.1 °F 61% 30.03 in 10.0 mi SSE 3.5 mph - N/A   Overcast
6:56 PM 81.0 °F 84.4 °F 70.0 °F 69% 30.04 in 10.0 mi Calm Calm - N/A   Clear
7:56 PM 75.9 °F - 71.1 °F 85% 30.06 in 10.0 mi Calm Calm - N/A   Clear
9:56 PM 75.0 °F - 69.1 °F 82% 30.07 in 10.0 mi Calm Calm - N/A   Clear
10:56 PM 73.0 °F - 69.1 °F 87% 30.07 in 10.0 mi Calm Calm - N/A   Partly Cloudy
11:56 PM 71.1 °F - 69.1 °F 93% 30.06 in 10.0 mi Calm Calm - N/A   Clear